Time,TemperatureF,DewpointF,PressureIn,WindDirection,WindDirectionDegrees,WindSpeedMPH,WindSpeedGustMPH,Humidity,HourlyPrecipIn,Conditions,Clouds,dailyrainin,SoftwareType,DateUTC
2013-01-24 00:03:00,43.0,27.0,-100.00,West,270,7.0,12.0,53,-99.99,,,-99.99,,2013-01-24 05:03:00,
2013-01-24 00:12:00,43.0,27.0,-100.00,West,270,7.0,12.0,53,-99.99,,,-99.99,,2013-01-24 05:12:00,
2013-01-24 00:23:00,44.0,28.0,-100.00,West,265,9.0,14.0,54,-99.99,,,-99.99,,2013-01-24 05:23:00,
2013-01-24 00:33:00,44.0,28.0,-100.00,West,260,9.0,15.0,54,-99.99,,,-99.99,,2013-01-24 05:33:00,
2013-01-24 00:43:00,43.0,28.0,-100.00,West,270,10.0,17.0,55,-99.99,,,-99.99,,2013-01-24 05:43:00,
2013-01-24 00:53:00,43.0,28.0,-100.00,West,270,10.0,17.0,55,-99.99,,,-99.99,,2013-01-24 05:53:00,
2013-01-24 01:03:00,43.0,28.0,-100.00,West,265,9.0,16.0,55,-99.99,,,-99.99,,2013-01-24 06:03:00,
2013-01-24 01:12:00,43.0,29.0,-100.00,West,275,5.0,14.0,56,-99.99,,,-99.99,,2013-01-24 06:12:00,
2013-01-24 01:22:00,43.0,28.0,-100.00,West,260,10.0,15.0,56,-99.99,,,-99.99,,2013-01-24 06:22:00,
2013-01-24 01:32:00,43.0,29.0,-100.00,WSW,255,9.0,14.0,57,-99.99,,,-99.99,,2013-01-24 06:32:00,
2013-01-24 01:42:00,43.0,29.0,-100.00,West,275,11.0,18.0,58,-99.99,,,-99.99,,2013-01-24 06:42:00,
2013-01-24 01:52:00,43.0,29.0,-100.00,West,275,11.0,18.0,58,-99.99,,,-99.99,,2013-01-24 06:52:00,
2013-01-24 02:03:00,42.0,29.0,-100.00,West,260,6.0,15.0,59,-99.99,,,-99.99,,2013-01-24 07:03:00,
2013-01-24 02:12:00,42.0,29.0,-100.00,West,265,6.0,16.0,60,-99.99,,,-99.99,,2013-01-24 07:12:00,
2013-01-24 02:23:00,42.0,29.0,-100.00,WNW,285,7.0,13.0,60,-99.99,,,-99.99,,2013-01-24 07:23:00,
2013-01-24 02:33:00,42.0,30.0,-100.00,WNW,300,5.0,14.0,61,-99.99,,,-99.99,,2013-01-24 07:33:00,
2013-01-24 02:43:00,42.0,30.0,-100.00,WNW,295,6.0,11.0,62,-99.99,,,-99.99,,2013-01-24 07:43:00,
2013-01-24 02:52:00,42.0,30.0,-100.00,WNW,295,6.0,11.0,62,-99.99,,,-99.99,,2013-01-24 07:52:00,
2013-01-24 03:03:00,42.0,31.0,-100.00,West,265,8.0,17.0,64,-99.99,,,-99.99,,2013-01-24 08:03:00,
2013-01-24 03:13:00,42.0,32.0,-100.00,West,270,11.0,17.0,66,-99.99,,,-99.99,,2013-01-24 08:13:00,
2013-01-24 03:23:00,42.0,32.0,-100.00,WSW,255,8.0,16.0,67,-99.99,,,-99.99,,2013-01-24 08:23:00,
2013-01-24 03:33:00,42.0,33.0,-100.00,West,265,6.0,13.0,68,-99.99,,,-99.99,,2013-01-24 08:33:00,
2013-01-24 03:43:00,42.0,33.0,-100.00,West,265,10.0,14.0,69,-99.99,,,-99.99,,2013-01-24 08:43:00,
2013-01-24 03:52:00,42.0,33.0,-100.00,West,265,10.0,14.0,69,-99.99,,,-99.99,,2013-01-24 08:52:00,
2013-01-24 04:03:00,43.0,34.0,-100.00,WNW,285,8.0,23.0,70,-99.99,,,-99.99,,2013-01-24 09:03:00,
2013-01-24 04:13:00,44.0,35.0,-100.00,West,270,12.0,16.0,71,-99.99,,,-99.99,,2013-01-24 09:13:00,
2013-01-24 04:23:00,44.0,35.0,-100.00,West,275,10.0,17.0,71,-99.99,,,-99.99,,2013-01-24 09:23:00,
2013-01-24 04:33:00,44.0,35.0,-100.00,West,265,8.0,18.0,71,-99.99,,,-99.99,,2013-01-24 09:33:00,
2013-01-24 04:43:00,45.0,36.0,-100.00,West,270,10.0,20.0,71,-99.99,,,-99.99,,2013-01-24 09:43:00,
2013-01-24 04:53:00,45.0,36.0,-100.00,West,270,10.0,20.0,71,-99.99,,,-99.99,,2013-01-24 09:53:00,
2013-01-24 05:03:00,45.0,36.0,-100.00,West,275,9.0,21.0,71,-99.99,,,-99.99,,2013-01-24 10:03:00,
2013-01-24 05:12:00,45.0,37.0,-100.00,West,270,10.0,24.0,71,-99.99,,,-99.99,,2013-01-24 10:12:00,
2013-01-24 05:23:00,46.0,37.0,-100.00,WNW,285,9.0,21.0,71,-99.99,,,-99.99,,2013-01-24 10:23:00,
2013-01-24 05:33:00,46.0,37.0,-100.00,West,275,6.0,16.0,71,-99.99,,,-99.99,,2013-01-24 10:33:00,
2013-01-24 05:43:00,46.0,37.0,-100.00,West,265,10.0,17.0,71,-99.99,,,-99.99,,2013-01-24 10:43:00,
2013-01-24 05:52:00,46.0,37.0,-100.00,West,265,10.0,17.0,71,-99.99,,,-99.99,,2013-01-24 10:52:00,
2013-01-24 06:03:00,46.0,37.0,-100.00,West,260,9.0,18.0,71,-99.99,,,-99.99,,2013-01-24 11:03:00,
2013-01-24 06:12:00,46.0,37.0,-100.00,West,265,9.0,18.0,71,-99.99,,,-99.99,,2013-01-24 11:12:00,
2013-01-24 06:23:00,46.0,37.0,-100.00,WSW,250,11.0,18.0,71,-99.99,,,-99.99,,2013-01-24 11:23:00,
2013-01-24 06:33:00,46.0,37.0,-100.00,West,260,10.0,16.0,71,-99.99,,,-99.99,,2013-01-24 11:33:00,
2013-01-24 06:43:00,46.0,37.0,-100.00,West,270,6.0,19.0,70,-99.99,,,-99.99,,2013-01-24 11:43:00,
2013-01-24 06:53:00,46.0,37.0,-100.00,West,270,6.0,19.0,70,-99.99,,,-99.99,,2013-01-24 11:53:00,
2013-01-24 07:03:00,46.0,36.0,-100.00,West,265,11.0,17.0,69,-99.99,,,-99.99,,2013-01-24 12:03:00,
2013-01-24 07:12:00,46.0,36.0,-100.00,WSW,255,10.0,16.0,68,-99.99,,,-99.99,,2013-01-24 12:12:00,
2013-01-24 07:23:00,46.0,36.0,-100.00,West,270,8.0,17.0,68,-99.99,,,-99.99,,2013-01-24 12:23:00,
2013-01-24 07:33:00,46.0,36.0,-100.00,West,265,6.0,16.0,68,-99.99,,,-99.99,,2013-01-24 12:33:00,
2013-01-24 07:43:00,46.0,36.0,-100.00,WSW,245,8.0,14.0,66,-99.99,,,-99.99,,2013-01-24 12:43:00,
2013-01-24 07:53:00,46.0,36.0,-100.00,WSW,245,8.0,14.0,66,-99.99,,,-99.99,,2013-01-24 12:53:00,
2013-01-24 08:03:00,46.0,35.0,-100.00,West,265,6.0,13.0,66,-99.99,,,-99.99,,2013-01-24 13:03:00,
2013-01-24 08:13:00,46.0,35.0,-100.00,West,265,6.0,19.0,64,-99.99,,,-99.99,,2013-01-24 13:13:00,
2013-01-24 08:23:00,46.0,34.0,-100.00,WNW,290,6.0,15.0,63,-99.99,,,-99.99,,2013-01-24 13:23:00,
2013-01-24 08:33:00,46.0,34.0,-100.00,WNW,290,6.0,15.0,63,-99.99,,,-99.99,,2013-01-24 13:33:00,
2013-01-24 08:43:00,47.0,34.0,-100.00,WNW,290,7.0,16.0,59,-99.99,,,-99.99,,2013-01-24 13:43:00,
2013-01-24 08:53:00,47.0,34.0,-100.00,WNW,290,7.0,16.0,59,-99.99,,,-99.99,,2013-01-24 13:53:00,
2013-01-24 09:03:00,49.0,33.0,-100.00,West,280,4.0,11.0,55,-99.99,,,-99.99,,2013-01-24 14:03:00,
2013-01-24 09:12:00,50.0,34.0,-100.00,WNW,285,3.0,7.0,53,-99.99,,,-99.99,,2013-01-24 14:12:00,
2013-01-24 09:23:00,50.0,32.0,-100.00,North,0,5.0,10.0,50,-99.99,,,-99.99,,2013-01-24 14:23:00,
2013-01-24 09:33:00,51.0,33.0,-100.00,West,265,2.0,7.0,49,-99.99,,,-99.99,,2013-01-24 14:33:00,
2013-01-24 09:43:00,51.0,32.0,-100.00,North,0,5.0,9.0,47,-99.99,,,-99.99,,2013-01-24 14:43:00,
2013-01-24 09:53:00,51.0,32.0,-100.00,North,0,5.0,9.0,47,-99.99,,,-99.99,,2013-01-24 14:53:00,
2013-01-24 10:04:00,53.0,32.0,-100.00,North,0,1.0,6.0,44,-99.99,,,-99.99,,2013-01-24 15:04:00,
2013-01-24 10:13:00,54.0,33.0,-100.00,East,90,5.0,8.0,46,-99.99,,,-99.99,,2013-01-24 15:13:00,
2013-01-24 10:23:00,54.0,34.0,-100.00,East,90,4.0,8.0,47,-99.99,,,-99.99,,2013-01-24 15:23:00,
2013-01-24 10:33:00,54.0,34.0,-100.00,East,90,4.0,8.0,47,-99.99,,,-99.99,,2013-01-24 15:33:00,
2013-01-24 10:43:00,52.0,33.0,-100.00,East,90,2.0,9.0,47,-99.99,,,-99.99,,2013-01-24 15:43:00,
2013-01-24 10:53:00,52.0,33.0,-100.00,East,90,2.0,9.0,47,-99.99,,,-99.99,,2013-01-24 15:53:00,
2013-01-24 11:04:00,54.0,33.0,-100.00,East,90,1.0,10.0,46,-99.99,,,-99.99,,2013-01-24 16:04:00,
2013-01-24 11:12:00,54.0,33.0,-100.00,East,80,2.0,13.0,45,-99.99,,,-99.99,,2013-01-24 16:12:00,
2013-01-24 11:23:00,53.0,32.0,-100.00,SE,135,4.0,14.0,45,-99.99,,,-99.99,,2013-01-24 16:23:00,
2013-01-24 11:33:00,54.0,32.0,-100.00,East,80,5.0,11.0,43,-99.99,,,-99.99,,2013-01-24 16:33:00,
2013-01-24 11:43:00,54.0,32.0,-100.00,East,80,5.0,11.0,43,-99.99,,,-99.99,,2013-01-24 16:43:00,
2013-01-24 12:03:00,54.0,29.0,-100.00,NE,35,6.0,15.0,38,-99.99,,,-99.99,,2013-01-24 17:03:00,
2013-01-24 12:12:00,54.0,28.0,-100.00,ESE,105,4.0,13.0,37,-99.99,,,-99.99,,2013-01-24 17:12:00,
2013-01-24 12:22:00,54.0,28.0,-100.00,ESE,105,4.0,13.0,37,-99.99,,,-99.99,,2013-01-24 17:22:00,
2013-01-24 12:32:00,54.0,27.0,-100.00,North,0,4.0,8.0,36,-99.99,,,-99.99,,2013-01-24 17:32:00,
2013-01-24 12:42:00,55.0,29.0,-100.00,East,95,2.0,10.0,36,-99.99,,,-99.99,,2013-01-24 17:42:00,
2013-01-24 12:52:00,55.0,29.0,-100.00,East,95,2.0,10.0,36,-99.99,,,-99.99,,2013-01-24 17:52:00,
2013-01-24 13:03:00,56.0,28.0,-100.00,East,85,4.0,14.0,33,-99.99,,,-99.99,,2013-01-24 18:03:00,
2013-01-24 13:12:00,55.0,26.0,-100.00,North,10,3.0,11.0,33,-99.99,,,-99.99,,2013-01-24 18:12:00,
2013-01-24 13:23:00,54.0,26.0,-100.00,NE,55,3.0,14.0,33,-99.99,,,-99.99,,2013-01-24 18:23:00,
2013-01-24 13:33:00,55.0,25.0,-100.00,ESE,110,4.0,16.0,32,-99.99,,,-99.99,,2013-01-24 18:33:00,
2013-01-24 13:42:00,54.0,25.0,-100.00,ESE,110,4.0,14.0,32,-99.99,,,-99.99,,2013-01-24 18:42:00,
2013-01-24 13:53:00,54.0,25.0,-100.00,ESE,110,4.0,14.0,32,-99.99,,,-99.99,,2013-01-24 18:53:00,
2013-01-24 14:02:00,54.0,25.0,-100.00,East,95,8.0,14.0,32,-99.99,,,-99.99,,2013-01-24 19:02:00,
2013-01-24 14:12:00,53.0,24.0,-100.00,ENE,75,4.0,13.0,32,-99.99,,,-99.99,,2013-01-24 19:12:00,
2013-01-24 14:22:00,53.0,24.0,-100.00,SSE,150,4.0,14.0,32,-99.99,,,-99.99,,2013-01-24 19:22:00,
2013-01-24 14:33:00,53.0,23.0,-100.00,East,85,6.0,14.0,31,-99.99,,,-99.99,,2013-01-24 19:33:00,
2013-01-24 14:42:00,53.0,23.0,-100.00,NNE,20,3.0,13.0,31,-99.99,,,-99.99,,2013-01-24 19:42:00,
2013-01-24 14:52:00,53.0,23.0,-100.00,East,80,5.0,13.0,31,-99.99,,,-99.99,,2013-01-24 19:52:00,
2013-01-24 15:02:00,53.0,23.0,-100.00,East,80,5.0,13.0,31,-99.99,,,-99.99,,2013-01-24 20:02:00,
2013-01-24 15:12:00,53.0,23.0,-100.00,East,100,3.0,12.0,31,-99.99,,,-99.99,,2013-01-24 20:12:00,
2013-01-24 15:22:00,52.0,22.0,-100.00,East,90,6.0,15.0,31,-99.99,,,-99.99,,2013-01-24 20:22:00,
2013-01-24 15:33:00,52.0,22.0,-100.00,East,90,4.0,11.0,31,-99.99,,,-99.99,,2013-01-24 20:33:00,
2013-01-24 15:42:00,52.0,22.0,-100.00,ENE,65,4.0,10.0,31,-99.99,,,-99.99,,2013-01-24 20:42:00,
2013-01-24 15:52:00,51.0,22.0,-100.00,East,85,6.0,11.0,31,-99.99,,,-99.99,,2013-01-24 20:52:00,
2013-01-24 16:03:00,51.0,21.0,-100.00,East,85,4.0,11.0,30,-99.99,,,-99.99,,2013-01-24 21:03:00,
2013-01-24 16:12:00,51.0,21.0,-100.00,East,85,4.0,11.0,30,-99.99,,,-99.99,,2013-01-24 21:12:00,
2013-01-24 16:23:00,51.0,21.0,-100.00,East,90,3.0,11.0,30,-99.99,,,-99.99,,2013-01-24 21:23:00,
2013-01-24 16:33:00,51.0,20.0,-100.00,ENE,75,3.0,7.0,30,-99.99,,,-99.99,,2013-01-24 21:33:00,
2013-01-24 16:43:00,51.0,21.0,-100.00,ENE,65,3.0,9.0,30,-99.99,,,-99.99,,2013-01-24 21:43:00,
2013-01-24 16:52:00,50.0,20.0,-100.00,East,90,4.0,12.0,30,-99.99,,,-99.99,,2013-01-24 21:52:00,
2013-01-24 17:03:00,50.0,19.0,-100.00,North,10,3.0,10.0,30,-99.99,,,-99.99,,2013-01-24 22:03:00,
2013-01-24 17:12:00,50.0,20.0,-100.00,North,10,1.0,9.0,30,-99.99,,,-99.99,,2013-01-24 22:12:00,
2013-01-24 17:22:00,49.0,19.0,-100.00,ENE,75,4.0,12.0,30,-99.99,,,-99.99,,2013-01-24 22:22:00,
2013-01-24 17:33:00,47.0,17.0,-100.00,East,80,6.0,17.0,29,-99.99,,,-99.99,,2013-01-24 22:33:00,
2013-01-24 17:42:00,46.0,16.0,-100.00,East,95,3.0,15.0,29,-99.99,,,-99.99,,2013-01-24 22:42:00,
2013-01-24 17:52:00,46.0,16.0,-100.00,East,95,3.0,15.0,29,-99.99,,,-99.99,,2013-01-24 22:52:00,
2013-01-24 18:03:00,45.0,14.0,-100.00,East,85,6.0,14.0,28,-99.99,,,-99.99,,2013-01-24 23:03:00,
2013-01-24 18:12:00,45.0,14.0,-100.00,East,90,7.0,14.0,28,-99.99,,,-99.99,,2013-01-24 23:12:00,
2013-01-24 18:22:00,44.0,12.0,-100.00,East,90,6.0,14.0,27,-99.99,,,-99.99,,2013-01-24 23:22:00,
2013-01-24 18:32:00,44.0,12.0,-100.00,ENE,75,5.0,16.0,27,-99.99,,,-99.99,,2013-01-24 23:32:00,
2013-01-24 18:42:00,43.0,11.0,-100.00,East,85,4.0,11.0,27,-99.99,,,-99.99,,2013-01-24 23:42:00,
2013-01-24 18:52:00,43.0,11.0,-100.00,ESE,105,5.0,14.0,27,-99.99,,,-99.99,,2013-01-24 23:52:00,
2013-01-24 19:02:00,42.0,12.0,-100.00,East,90,4.0,12.0,28,-99.99,,,-99.99,,2013-01-25 00:02:00,
2013-01-24 19:12:00,42.0,12.0,-100.00,ENE,75,4.0,14.0,28,-99.99,,,-99.99,,2013-01-25 00:12:00,
2013-01-24 19:22:00,42.0,11.0,-100.00,East,80,4.0,7.0,28,-99.99,,,-99.99,,2013-01-25 00:22:00,
2013-01-24 19:32:00,42.0,11.0,-100.00,ENE,75,6.0,11.0,28,-99.99,,,-99.99,,2013-01-25 00:32:00,
2013-01-24 19:42:00,41.0,11.0,-100.00,ENE,65,3.0,11.0,29,-99.99,,,-99.99,,2013-01-25 00:42:00,
2013-01-24 19:52:00,40.0,13.0,-100.00,ENE,70,4.0,16.0,32,-99.99,,,-99.99,,2013-01-25 00:52:00,
2013-01-24 20:02:00,39.0,13.0,-100.00,ENE,75,5.0,13.0,34,-99.99,,,-99.99,,2013-01-25 01:02:00,
2013-01-24 20:12:00,38.0,13.0,-100.00,ENE,75,3.0,14.0,35,-99.99,,,-99.99,,2013-01-25 01:12:00,
2013-01-24 20:22:00,38.0,13.0,-100.00,East,85,6.0,15.0,35,-99.99,,,-99.99,,2013-01-25 01:22:00,
2013-01-24 20:32:00,37.0,13.0,-100.00,East,90,5.0,11.0,36,-99.99,,,-99.99,,2013-01-25 01:32:00,
2013-01-24 20:42:00,36.0,13.0,-100.00,East,80,2.0,11.0,37,-99.99,,,-99.99,,2013-01-25 01:42:00,
2013-01-24 20:52:00,36.0,13.0,-100.00,East,80,2.0,11.0,37,-99.99,,,-99.99,,2013-01-25 01:52:00,
2013-01-24 21:03:00,35.0,12.0,-100.00,East,95,3.0,11.0,37,-99.99,,,-99.99,,2013-01-25 02:03:00,
2013-01-24 21:12:00,35.0,11.0,-100.00,ENE,75,5.0,15.0,37,-99.99,,,-99.99,,2013-01-25 02:12:00,
2013-01-24 21:22:00,35.0,12.0,-100.00,ENE,70,3.0,10.0,38,-99.99,,,-99.99,,2013-01-25 02:22:00,
2013-01-24 21:33:00,34.0,11.0,-100.00,East,90,5.0,11.0,38,-99.99,,,-99.99,,2013-01-25 02:33:00,
2013-01-24 21:42:00,34.0,11.0,-100.00,East,85,4.0,9.0,38,-99.99,,,-99.99,,2013-01-25 02:42:00,
2013-01-24 21:52:00,34.0,11.0,-100.00,East,85,4.0,9.0,38,-99.99,,,-99.99,,2013-01-25 02:52:00,
2013-01-24 22:02:00,33.0,10.0,-100.00,East,85,4.0,9.0,38,-99.99,,,-99.99,,2013-01-25 03:02:00,
2013-01-24 22:12:00,33.0,10.0,-100.00,ESE,120,2.0,9.0,38,-99.99,,,-99.99,,2013-01-25 03:12:00,
2013-01-24 22:22:00,32.0,9.0,-100.00,ESE,115,2.0,11.0,38,-99.99,,,-99.99,,2013-01-25 03:22:00,
2013-01-24 22:33:00,32.0,9.0,-100.00,East,85,4.0,8.0,38,-99.99,,,-99.99,,2013-01-25 03:33:00,
2013-01-24 22:42:00,32.0,9.0,-100.00,ESE,120,4.0,11.0,38,-99.99,,,-99.99,,2013-01-25 03:42:00,
2013-01-24 22:52:00,32.0,9.0,-100.00,ESE,120,4.0,11.0,38,-99.99,,,-99.99,,2013-01-25 03:52:00,
2013-01-24 23:02:00,31.0,9.0,-100.00,ESE,110,1.0,8.0,38,-99.99,,,-99.99,,2013-01-25 04:02:00,
2013-01-24 23:12:00,31.0,9.0,-100.00,ESE,105,1.0,6.0,39,-99.99,,,-99.99,,2013-01-25 04:12:00,
2013-01-24 23:22:00,30.0,9.0,-100.00,ESE,105,1.0,4.0,40,-99.99,,,-99.99,,2013-01-25 04:22:00,
2013-01-24 23:32:00,30.0,9.0,-100.00,ENE,65,2.0,10.0,40,-99.99,,,-99.99,,2013-01-25 04:32:00,
2013-01-24 23:42:00,30.0,9.0,-100.00,SE,135,3.0,9.0,40,-99.99,,,-99.99,,2013-01-25 04:42:00,
2013-01-24 23:51:00,30.0,9.0,-100.00,SE,135,3.0,9.0,40,-99.99,,,-99.99,,2013-01-25 04:51:00,